Location: Ebenezer
(18.2167°N, 63.0667°W)
Time: 02:17:25
(UTC+00:00)

CZ-2D R/B - Pass Details

Date: 26 January 2020
Orbit: 522 x 538 km, 97.4° (Epoch: 26 February)

Event Time Altitude Azimuth Distance (km) Brightness Sun altitude
Rises 23:04:22 0° 164° (SSE) 2,643 6.8 -14.7°
Reaches altitude 10° 23:06:27 10° 162° (SSE) 1,758 5.9 -15.2°
Maximum altitude 23:10:14 72° 79° (ENE) 556 3.1 -16.1°
Drops below altitude 10° 23:14:02 10° 354° (N) 1,771 5.8 -17.0°
Sets 23:16:09 0° 352° (N) 2,664 6.8 -17.5°
